NOAA 16 DEB

Satellite information

Favourite Embed

Satellite Type and Status

DEBRISIN ORBIT

Key statistics

Satellite NOAA 16 DEB at a glance.

Uptime

9214

Days in orbit

Revolutions

≈ 14.4

Per day

Orbit

SSO

Sun Synchronous Orbit

Inclination

99.0

Latest

Satellite identification and parameters

Extended collection of information and parameters for NOAA 16 DEB.

Object identification

Identified? True

Debris? True

Object name: NOAA 16 DEB

International designator: 2000-055T

Object number (NORAD): 41060

Object ID (CCSDS): 41060

Country: UNITED STATES OF AMERICA (US)

Current information (Y/N): Y

RCS size: SMALL

Orbital parameters

Period: 100.086 minutes

Inclination: 98.9743 deg

SMA: 7140.72 km

Apoapsis: 817.896 km

Periapsis: 707.274 km

RAAN: 230.192 deg

Eccentricy: 0.00774583

Argument of periapsis: 262.4773 deg

Mean anomaly: 96.7608 deg

Mean motion: 14.38764652 rev/day

Mean motion (dot): 0.00004096 rev/day2

B* drag term: 0.0013028058 1/REarth

Two-line elements (TLE)

Creation date: Dec. 12, 2025, 10:14 a.m.

Reference frame: TEME

Reference center: EARTH

Epoch: Dec. 12, 2025, 5:14 a.m. UTC

TLE line 0: 0 NOAA 16 DEB

TLE line 1: 1 41060U 00055T 25346.21860364 .00004096 00000-0 13028-2 0 9996

TLE line 2: 2 41060 98.9743 230.1920 0077458 262.4773 96.7608 14.38764652524904

Live tracking on map

Real-time ground track for satellite NOAA 16 DEB.

In-orbit conjunctions

A list of the most updated potential collisions computed for object NOAA 16 DEB.

Target Orbit TCA Probability of collision Miss distance Type
FENGYUN 1C DEB SSO 2025-11-22 13:25:16 0.0002501685 62.0 (m) DEBRIS
CZ-6A DEB SSO 2024-11-13 16:17:34 0.001383118 129.0 (m) DEBRIS
THOR ABLESTAR DEB LEO 2024-08-25 06:46:41 0.0001889036 256.0 (m) DEBRIS

Associated space launch

The NOAA K, L and M POES satellites begin the fifth generation of improved environmental monitoring in support of NOAA missions. The instrument payload has significant improvements and additions/deletions. The instrument changes have effected the spacecraft subsystems and data formats.

NOAA 16 DEB was lifted into orbit during the mission ‘Titan II SLV | NOAA 16’, on board a Titan II SLV space rocket.

The launch took place on Sept. 21, 2000, 10:22 a.m. from Space Launch Complex 4W.

For more information about the launch, click the button.

Launch to space Titan II SLV | NOAA 16
Titan II SLV | NOAA 16

Agency: N/A

Status: Launch Successful

Launch date: Sept. 21, 2000, 10:22 a.m. UTC

Rocket: Titan II SLV

Launch pad: Space Launch Complex 4W

Location: Vandenberg SFB, CA, USA

...

Latest news about this satellite

There are no fresh news available about this satellite. Check back as we update our databases every day.


Newsletter sign-up

Weekly statistics, charts and insights to help you stay on top of the space industry.